Flag for Canada Weather past 2 weeks in Medicine Hat, Alberta, Canada

Now
43 °F

Passing clouds.


Feels Like: 37 °F
Forecast: 39 / 61 °F
Wind: 9 mph from Southwest

Location: Medicine Hat

Current Time: Oct 22, 2014 at 10:00:30 AM

Latest Report: Oct 22, 2014 at 9:00 AM


Visibility: 30 mi

Pressure: 29.85 "Hg

Humidity: 76%

Dew point: 36 °F

Location of Medicine HatLocation

Historic Weather in Medicine Hat — Graph

°F

Medicine Hat temperature yesterday

Maximum temperature yesterday: 68 °F (at 12:00 PM)
Minimum temperature yesterday: 39 °F (at 5:00 AM)
Average temperature yesterday: 50 °F

Past Weeks' High & Low Weather Summary

 TemperatureHumidityPressure
High81 °F (Oct 20, 3:00 PM)100% (Oct 10, 6:00 AM)30.24 "Hg (Oct 10, 6:00 AM)
Low30 °F (Oct 9, 6:00 AM)17% (Oct 14, 3:00 PM)29.53 "Hg (Oct 15, 3:00 PM)
Average53 °F61%29.86 "Hg
* Reported Oct 7 8:00 AM — Oct 22 8:00 AM, Medicine Hat, Weather by CustomWeather, © 2014

Note: Actual official high and low records may vary slightly from our data, if they occured in-between our weather recording intervals... More about our weather records

Advertising

Medicine Hat weather history for previous 24 hours

 ConditionsComfort  
Time TempWeatherWind HumidityBarometerVisibility
8:00 AM
Oct 22
43 °FPassing clouds.12 mph76%29.84 "Hg30 mi
7:00 AM41 °FPassing clouds.6 mph81%29.83 "Hg15 mi
6:00 AM43 °FClear.9 mph81%29.83 "Hg9 mi
5:00 AM45 °FClear.8 mph81%29.83 "Hg9 mi
4:00 AM45 °FPassing clouds.9 mph81%29.82 "Hg9 mi
3:00 AM46 °FPassing clouds.9 mph87%29.80 "Hg9 mi
2:00 AM46 °FPassing clouds.8 mph93%29.79 "Hg9 mi
1:00 AM48 °FPassing clouds.9 mph94%29.76 "Hg9 mi
12:00 AM48 °FOvercast.5 mph94%29.74 "Hg9 mi
11:00 PM
Oct 21
48 °FOvercast.5 mph94%29.73 "Hg9 mi
10:00 PM50 °FOvercast.8 mph88%29.73 "Hg9 mi
9:00 PM50 °FOvercast.7 mph94%29.73 "Hg15 mi
8:50 PM50 °FOvercast.8 mph94%29.74 "Hg15 mi
8:00 PM50 °FSprinkles. Overcast.3 mph94%29.74 "Hg15 mi
7:00 PM52 °FSprinkles. Overcast.12 mph88%29.73 "Hg15 mi
6:00 PM54 °FSprinkles. Overcast.15 mph77%29.70 "Hg15 mi
5:00 PM55 °FOvercast.7 mph77%29.69 "Hg30 mi
4:00 PM54 °FSprinkles. Overcast.6 mph88%29.68 "Hg30 mi
3:00 PM57 °FSprinkles. Overcast.12 mph67%29.67 "Hg30 mi
2:00 PM57 °FLight rain. More clouds than sun.10 mph72%29.64 "Hg30 mi
1:00 PM61 °FOvercast.22 mph52%29.63 "Hg30 mi
12:00 PM68 °FPartly sunny.22 mph35%29.61 "Hg30 mi
11:00 AM61 °FPartly sunny.9 mph52%29.60 "Hg30 mi
10:00 AM54 °FPartly sunny.6 mph67%29.62 "Hg30 mi
Weather by CustomWeather, © 2014

See weather overviewHow to use our weather pages